Tracking 20715 objects as of 27-May-2020
HD Live streaming from Space Station
objects crossing your sky now

DELTA 1 DEB


DELTA 1 DEB is no longer on orbit


NORAD ID: 42571
Int'l Code: 1972-058KE
Perigee: N/A
Apogee: N/A
Inclination: N/A
Period: N/A
Semi major axis: N/A
RCS: N/A
Launch date: July 23, 1972
Source: United States (US)
Launch site: AIR FORCE WESTERN TEST RANGE (AFWTR)
Decay date: 2020-03-11

Note: This is SATELLITE DEBRIS
aabbcc
Your satellite tracking list
Your tracking list is empty




NASA's NSSDC Master Catalog

Two Line Element Set (TLE):
1 42571U 72058KE  20047.09002258  .00190674  00000-0  27602-2 0  9996
2 42571  98.9943 153.7288 0009745 282.6774  77.3386 15.55166471748743
Source of the keplerian elements: AFSPC